GFSMW_500_rhum_195.txt.gz
RH
50 41 31 43 34 28 31 38 83 68 64 80 98 95 68 66 61 49 33 42 58 60 55 54 54 56 56 47 39 40 44 50 45 34 37 49 67 63 58 54 48 40 32
54 53 58 48 49 52 47 56 53 55 78 83 84 82 74 71 56 40 48 64 74 66 62 63 61 59 54 47 46 50 53 48 38 40 47 70 69 68 61 56 45 36 27
80 73 64 63 60 57 56 58 55 58 61 59 59 55 63 64 58 62 75 78 78 75 73 71 70 69 67 59 57 56 51 42 45 52 68 82 70 62 62 51 44 34 24
73 80 71 69 67 64 60 66 69 66 70 68 64 64 74 75 81 83 81 79 92 85 79 80 75 68 64 60 59 52 49 54 63 81 90 91 89 76 59 54 45 36 25
56 52 48 51 61 70 77 78 71 63 65 69 82 78 91 94 91 77 74 95 96 85 85 84 77 70 64 62 60 61 66 79 89 91 92 94 93 75 64 49 43 39 28
70 63 57 50 49 74 73 58 51 50 56 67 71 83 95 100 97 83 98 97 84 84 85 83 78 74 74 77 79 83 88 92 92 89 95 96 87 66 50 48 45 38 30
70 68 69 90 64 65 69 72 67 64 65 73 73 88 100 99 98 87 98 94 96 94 86 85 82 79 83 89 91 92 93 95 96 100 100 99 87 59 51 48 54 51 44
90 88 88 94 86 90 72 72 78 73 68 80 93 95 100 100 99 97 95 88 98 96 89 86 87 90 95 93 93 94 95 98 100 100 99 96 88 71 59 65 67 68 63
89 90 95 96 98 95 82 92 94 88 81 84 92 100 100 98 98 97 97 96 97 98 100 98 91 92 96 96 91 97 98 99 98 100 95 85 86 75 73 80 82 71 64
92 99 100 100 94 96 96 95 92 90 95 96 98 97 96 96 96 95 94 98 97 97 99 98 98 98 98 98 97 98 100 100 100 98 97 90 86 88 90 89 77 63 72
92 100 96 96 98 100 98 96 97 96 99 100 100 100 97 98 96 91 98 99 98 98 99 99 98 97 97 98 94 100 99 100 99 97 97 98 98 98 94 88 79 79 83
100 98 95 96 100 99 98 98 97 97 98 97 96 99 97 99 98 94 99 91 88 92 97 96 93 95 98 97 97 100 100 98 98 100 99 100 100 94 86 87 89 85 89
100 97 99 98 98 98 98 98 98 98 97 97 96 96 97 96 98 97 97 97 97 100 100 100 99 99 98 98 100 100 99 99 100 100 100 100 100 100 97 96 100 96 82
100 100 100 100 95 85 83 98 100 100 96 93 93 96 99 98 94 97 94 94 97 99 98 98 97 98 98 100 99 99 99 100 100 100 100 100 100 100 100 100 93 92 78
100 100 100 100 100 100 100 100 94 90 85 77 74 76 72 74 80 95 97 95 94 98 94 88 82 82 86 86 90 100 100 100 100 99 100 100 100 100 100 98 87 72 61
98 99 99 99 100 100 100 100 100 99 91 94 90 86 78 76 72 68 66 76 72 77 82 74 66 76 91 96 100 100 100 100 100 100 100 100 100 100 100 83 60 52 54
89 95 96 100 99 99 98 99 98 100 96 89 83 80 76 73 74 63 53 48 52 54 70 93 100 95 97 100 100 100 100 100 100 100 100 100 100 99 96 69 61 52 54
34 34 47 67 74 70 68 61 64 67 60 56 61 56 60 56 48 49 51 55 42 26 41 58 90 95 100 100 100 100 100 100 100 100 100 100 100 100 89 68 54 62 56
44 28 26 25 25 23 23 23 22 23 22 24 22 22 28 23 18 16 14 16 17 17 38 93 100 100 100 100 100 100 100 100 100 100 100 96 98 88 78 60 56 48 25
34 52 29 26 24 22 21 20 18 17 16 15 14 12 13 11 11 11 11 14 24 91 100 100 100 100 100 100 100 100 100 100 100 100 100 96 88 66 54 52 40 27 39
35 38 29 24 22 21 19 17 16 14 13 12 11 10 9 9 11 16 24 38 46 89 96 100 100 100 100 100 100 100 100 100 100 95 96 68 59 52 44 35 38 40 30
17 28 26 17 13 15 16 14 16 14 11 13 15 28 43 34 65 52 40 76 100 100 100 100 100 100 100 100 100 100 100 100 98 78 47 45 46 36 44 44 32 21 14
24 27 19 17 47 58 50 49 40 25 64 38 46 77 100 98 100 100 81 100 100 100 100 100 100 100 100 100 100 99 97 91 56 46 49 40 39 45 36 23 16 13 11
92 58 45 66 79 89 100 84 78 81 100 100 100 100 100 100 100 100 100 100 100 100 100 98 98 100 100 100 97 96 85 59 49 42 37 44 40 26 19 16 13 11 10
83 56 50 79 95 100 93 100 92 100 100 100 100 100 100 98 100 100 99 100 98 100 100 100 100 100 96 99 98 73 70 46 42 50 44 33 22 19 16 12 10 10 12
53 85 88 97 96 99 91 90 96 100 100 100 100 100 100 96 93 98 98 87 74 89 97 95 85 82 95 83 76 41 41 49 44 39 35 28 22 16 12 10 10 13 17

GFSMW_500_rhum_198.txt.gz
RH
40 54 37 29 28 24 22 27 25 27 35 62 68 70 90 94 87 99 100 92 76 62 42 47 67 64 60 56 55 56 63 65 46 44 50 47 44 39 35 42 54 61 50
40 51 50 39 43 49 37 33 43 37 50 85 81 85 92 90 94 97 94 84 72 58 51 78 77 68 72 68 65 60 56 49 49 54 54 50 44 41 48 62 73 68 61
47 51 53 39 38 65 43 50 51 52 42 53 81 82 77 63 83 88 92 82 82 73 78 79 82 91 87 76 70 67 64 59 60 60 55 48 47 59 73 75 71 73 71
59 55 85 52 47 70 65 61 64 64 65 66 52 56 59 64 87 78 72 73 76 82 93 96 96 95 90 80 72 71 66 60 57 55 56 58 63 73 71 78 78 78 75
52 63 66 71 65 50 65 66 68 68 68 72 74 69 77 64 68 69 77 89 94 100 100 92 90 86 92 74 70 70 68 65 72 69 72 78 84 86 79 64 68 92 77
62 76 97 96 61 55 52 54 60 66 72 85 94 94 79 80 79 91 96 96 97 98 100 94 94 97 88 81 72 72 75 72 73 84 91 89 89 90 89 85 70 84 76
95 87 96 98 86 87 68 63 68 76 82 87 71 68 68 71 74 79 94 96 97 96 95 93 98 97 95 92 89 86 87 83 83 87 87 87 95 96 100 100 98 77 60
97 98 87 98 95 82 80 96 93 77 80 75 83 81 73 82 79 80 88 96 95 97 98 87 94 98 93 98 97 90 86 89 96 97 96 99 98 98 96 99 98 94 89
100 100 100 100 98 91 80 92 96 98 92 85 98 96 90 96 98 85 81 98 95 90 92 97 98 98 98 91 85 96 97 97 98 98 98 98 97 99 100 98 97 92 95
99 100 100 100 100 98 94 95 97 94 95 97 100 98 96 96 97 87 88 93 100 98 98 97 92 92 95 97 92 98 98 97 98 91 96 97 100 100 100 98 98 100 99
98 98 99 99 98 99 95 97 97 97 96 92 96 100 98 97 97 96 96 97 96 94 99 96 96 98 98 98 99 98 98 98 90 99 96 98 100 100 100 100 99 98 98
97 99 99 94 100 99 95 98 98 96 98 97 92 100 98 98 98 97 95 97 98 97 97 96 96 97 98 97 97 99 98 98 97 96 100 99 100 100 100 100 100 100 100
94 99 100 100 96 88 97 98 95 97 97 97 96 96 99 98 98 98 96 97 96 97 97 98 96 96 97 97 99 99 97 96 99 96 98 99 100 100 100 100 99 100 100
99 100 99 100 100 99 100 100 100 97 98 99 99 95 86 99 93 91 95 94 91 96 98 96 97 97 99 100 100 100 98 98 95 95 100 99 100 100 100 100 100 100 100
90 85 80 96 97 99 100 100 100 99 100 99 97 99 100 99 72 60 72 84 95 96 96 93 94 90 91 97 97 97 92 82 98 100 100 100 100 98 100 100 100 100 100
85 83 93 78 78 81 98 93 97 98 100 100 100 97 97 92 67 67 74 81 90 96 97 94 86 91 89 78 84 100 100 88 80 99 100 100 100 100 100 100 100 100 100
31 34 42 47 41 45 60 92 99 98 91 98 99 98 97 97 91 87 87 78 66 57 59 60 55 59 68 72 75 80 99 100 100 99 100 100 100 100 100 100 100 100 100
21 28 40 56 26 24 22 24 24 28 30 57 57 50 79 78 55 40 38 37 34 32 29 29 27 24 26 31 54 82 97 99 96 100 100 100 100 100 100 100 100 100 99
20 20 29 36 32 27 24 23 24 26 24 24 20 19 20 25 29 21 22 21 23 22 20 19 18 17 16 31 85 100 100 100 100 100 100 100 100 100 99 99 97 99 90
100 78 80 96 52 100 69 49 33 25 25 23 22 22 18 16 15 14 14 14 12 12 12 13 14 13 16 58 83 88 97 100 100 100 100 100 100 99 100 98 75 48 43
84 100 82 80 95 91 76 43 33 27 22 20 18 17 15 14 13 12 12 11 11 12 13 18 23 37 80 72 55 100 100 100 100 100 100 100 98 98 97 84 43 38 39
46 100 100 94 73 56 36 33 26 15 14 14 12 11 12 13 12 19 37 38 33 40 36 40 53 93 100 100 100 100 100 100 100 100 100 100 98 91 57 41 39 38 36
27 25 42 40 16 92 54 18 16 27 36 28 15 21 36 80 42 38 50 54 78 44 72 86 100 100 100 100 100 100 100 100 100 100 97 93 64 48 43 42 38 35 26
33 100 50 28 63 33 41 35 35 90 93 63 87 91 93 99 96 100 93 100 89 98 100 100 100 100 100 100 100 100 100 100 99 87 59 52 47 44 42 39 31 23 16
31 63 62 63 51 56 51 79 97 100 96 99 100 100 100 100 100 100 100 100 100 100 100 100 100 100 100 98 100 100 98 80 58 52 55 46 44 43 39 30 21 16 12
92 100 76 68 86 100 85 85 100 100 96 98 99 100 100 100 100 100 100 100 100 92 79 77 78 90 100 100 90 77 96 83 49 47 48 45 43 39 26 19 15 12 10

GFSMW_500_rhum_201.txt.gz
RH
70 60 42 37 38 39 31 24 22 24 26 28 38 40 55 62 79 96 96 92 98 88 88 88 90 66 56 46 59 58 60 64 63 59 54 49 51 48 49 53 52 44 44
51 58 54 44 37 36 39 42 34 25 28 36 49 49 43 57 82 100 99 93 91 93 94 100 86 66 61 61 72 69 80 76 69 64 58 53 52 54 55 55 49 54 69
66 68 52 40 40 33 32 41 45 45 46 46 55 55 47 38 57 74 99 96 97 95 93 100 83 73 71 80 89 92 98 90 80 73 70 66 59 55 53 56 62 65 72
34 44 58 53 43 48 50 42 46 60 64 56 60 67 69 53 53 63 97 97 96 91 96 100 85 74 82 96 96 95 97 96 88 70 77 70 70 81 82 84 86 79 75
53 66 79 56 56 47 51 58 77 91 80 81 73 73 76 78 65 66 84 96 96 96 97 99 92 87 93 97 95 90 96 97 90 89 92 91 88 90 89 85 81 75 82
63 77 79 80 70 61 66 71 72 98 98 97 90 76 78 87 93 91 90 98 98 97 97 98 98 95 94 96 95 92 94 98 96 94 93 93 94 92 90 93 90 90 87
65 66 97 87 66 84 73 77 86 100 97 98 96 90 82 87 94 97 100 98 99 100 98 98 98 97 98 98 97 91 83 99 100 95 96 95 93 95 95 86 74 85 78
92 76 70 84 79 79 69 69 84 83 97 96 82 72 80 88 96 95 94 95 99 100 97 94 95 96 99 98 98 96 95 89 79 98 100 94 97 98 97 96 92 80 77
98 94 95 76 74 83 76 80 92 96 94 95 96 78 76 85 86 82 80 91 100 100 96 94 89 86 94 98 98 98 98 94 96 97 97 96 98 97 97 98 100 94 93
92 99 99 98 94 96 83 76 100 94 98 96 99 97 97 89 91 85 84 99 100 99 96 96 95 96 95 93 96 97 97 98 98 98 98 98 95 97 99 98 100 100 99
79 92 98 97 97 99 96 89 90 82 86 100 87 81 94 91 96 93 93 94 94 99 97 97 97 96 96 98 97 97 96 98 98 96 95 99 96 96 96 95 88 84 100
51 95 88 99 92 90 98 98 99 99 96 78 92 99 98 97 96 98 97 97 98 99 99 98 98 97 97 97 97 98 98 98 98 98 98 98 99 100 97 100 99 100 87
88 68 85 100 100 90 80 99 94 98 89 84 58 93 100 97 86 98 98 96 96 98 98 98 97 97 98 98 100 98 98 96 99 98 96 99 98 99 97 100 99 100 100
91 100 95 100 100 99 100 100 100 99 100 95 94 99 93 73 85 100 98 98 97 96 96 98 98 96 94 93 92 90 94 95 97 98 97 96 94 93 100 98 91 96 97
64 68 71 90 98 98 100 100 99 100 99 98 98 98 99 100 100 99 99 100 98 98 98 92 89 93 90 82 83 89 83 88 90 87 84 87 94 99 96 63 73 89 93
38 32 30 32 31 35 50 43 49 52 66 97 94 99 100 98 99 100 99 99 99 98 94 93 92 84 82 83 76 71 65 68 72 59 54 55 54 54 86 99 99 95 100
27 23 22 20 20 19 20 24 28 40 35 29 62 88 82 77 93 98 99 98 98 97 94 90 83 61 51 41 46 44 46 48 37 38 42 46 67 77 97 100 100 100 100
28 16 14 13 13 15 26 42 77 52 37 30 18 23 22 34 22 24 35 39 33 41 62 59 41 32 24 23 26 28 30 29 31 31 32 52 99 100 100 100 100 100 100
32 29 24 29 22 28 30 100 100 79 66 43 32 19 24 22 16 17 18 16 17 16 13 11 11 15 21 20 17 18 20 20 22 32 75 100 100 99 99 93 100 100 100
44 42 54 54 77 91 90 74 73 90 100 70 48 36 23 22 22 18 17 16 14 14 14 13 12 11 14 13 14 14 15 34 86 80 60 100 94 96 100 100 100 100 99
66 53 97 92 93 100 100 85 100 94 97 96 71 39 27 39 23 20 18 16 15 13 13 13 14 14 14 15 26 83 93 99 96 99 98 100 100 100 100 100 100 100 99
83 72 49 64 98 56 72 68 86 100 99 91 64 41 25 20 19 18 16 14 14 13 12 16 18 20 24 33 66 99 99 54 54 68 100 99 100 100 100 100 100 97 71
17 19 24 36 62 49 47 74 71 76 61 59 20 14 13 16 14 12 13 15 22 32 29 23 36 38 32 56 52 54 98 100 100 100 100 100 100 100 99 94 63 46 45
48 24 17 69 49 59 97 36 22 41 56 24 18 23 39 82 100 62 22 60 74 82 100 100 99 100 100 100 100 100 100 100 99 100 100 100 99 91 73 53 49 47 45
91 58 24 26 100 100 55 30 40 49 48 71 86 99 90 99 100 95 90 100 100 100 100 98 99 100 100 100 100 100 100 98 100 100 100 85 70 65 51 48 49 47 40
100 100 85 78 100 72 76 83 78 84 71 93 100 100 100 100 100 100 100 100 100 100 100 100 100 100 100 100 100 88 94 100 96 86 82 68 53 50 50 51 44 27 22

GFSMW_500_rhum_204.txt.gz
RH
27 22 27 33 30 25 36 36 40 40 34 28 24 27 30 35 50 63 92 96 83 100 100 97 93 100 88 87 89 79 61 56 51 65 74 67 68 67 62 58 54 53 59
26 21 18 13 10 21 24 35 35 39 37 30 25 25 28 29 50 60 76 92 97 96 97 86 92 98 93 90 88 92 70 78 72 84 78 78 90 91 82 71 67 64 60
19 29 27 16 21 27 36 42 47 37 38 42 43 41 39 34 41 56 73 87 92 96 98 94 97 96 95 96 90 97 82 83 82 85 87 96 96 83 78 75 68 71 80
7 10 24 16 17 30 40 43 44 54 51 56 51 55 54 56 60 78 78 63 74 95 99 97 96 97 96 97 96 93 84 81 92 94 96 94 98 84 83 89 92 90 86
6 10 19 28 31 25 26 68 74 74 78 79 91 86 85 83 72 66 78 90 92 87 94 97 98 97 97 100 96 93 89 87 87 85 87 95 96 97 97 98 95 88 90
7 9 22 34 33 38 35 36 67 97 96 99 97 92 97 95 89 91 83 88 90 94 93 98 97 97 98 100 97 96 94 92 94 86 86 87 89 99 97 97 96 94 95
9 14 27 25 37 48 50 41 54 75 96 98 96 94 86 96 96 98 94 89 98 97 96 98 99 98 98 97 94 93 100 96 92 95 95 98 94 95 87 97 96 97 96
28 74 89 88 79 57 51 51 60 62 75 96 100 100 100 96 96 97 95 94 96 97 94 88 95 99 99 98 98 99 98 99 100 95 98 96 95 98 97 98 100 98 98
98 98 97 90 95 97 97 83 80 71 69 96 97 98 85 96 96 95 95 89 94 100 99 95 87 89 93 96 94 94 91 83 96 98 96 96 98 98 96 98 99 98 91
42 31 29 61 53 83 77 97 97 90 87 99 97 96 96 97 98 95 96 84 86 99 97 95 91 97 96 98 91 98 97 97 98 99 95 92 99 98 94 97 95 98 100
63 27 18 16 22 25 30 54 77 93 100 100 99 88 97 97 86 91 100 89 95 97 95 94 96 98 96 96 97 94 97 98 94 98 99 97 98 97 97 98 97 99 97
43 27 18 16 18 20 17 21 82 60 97 98 97 99 100 97 98 98 97 99 100 98 98 96 98 98 98 98 98 98 98 97 95 97 98 99 100 97 99 95 98 98 100
53 41 42 29 21 25 22 27 44 84 92 92 89 99 100 98 98 99 89 96 100 98 99 99 99 99 98 97 99 98 99 98 98 98 96 96 96 98 98 99 99 99 99
74 72 73 67 78 62 86 90 100 99 100 96 95 100 100 98 97 98 100 100 97 97 98 99 99 98 98 98 98 98 98 98 96 96 97 98 98 95 93 95 96 95 83
72 67 64 60 62 70 76 85 90 97 99 100 90 100 100 100 98 98 100 100 98 100 100 99 98 98 99 100 99 98 98 98 97 98 96 90 80 71 68 60 53 46 46
71 60 53 50 49 50 47 46 45 55 64 75 80 76 83 96 86 86 98 99 99 100 100 100 100 99 98 100 100 95 94 93 89 84 70 59 52 39 29 24 26 30 38
75 70 66 68 64 45 34 29 27 28 29 28 40 43 45 58 40 44 61 68 84 97 82 90 95 98 97 100 100 96 87 70 60 46 36 36 39 38 33 40 47 56 88
100 90 58 42 31 20 16 16 15 14 14 16 35 78 58 37 26 25 22 19 38 59 88 73 34 29 24 19 16 26 43 52 43 37 32 23 22 31 37 36 64 100 100
72 66 62 50 36 27 27 27 14 9 16 24 100 100 79 39 30 25 24 23 19 17 19 41 53 19 17 16 12 10 8 9 11 13 18 22 24 27 40 79 95 79 74
82 59 66 58 49 36 43 41 41 43 49 61 100 100 86 38 38 33 31 24 26 19 18 14 12 13 12 11 10 9 9 10 12 19 23 30 43 46 67 59 63 59 78
65 66 73 68 48 62 57 46 58 93 96 69 82 100 96 96 70 59 40 33 32 22 20 20 16 14 12 12 12 15 17 17 18 20 23 48 64 72 43 63 71 95 100
36 34 30 29 27 29 26 32 42 55 89 81 80 97 100 82 100 83 54 40 41 36 28 31 33 23 24 22 22 22 22 24 26 30 33 46 63 59 80 92 100 100 100
75 48 38 34 27 17 15 15 25 32 42 45 45 73 74 59 54 76 45 35 29 27 27 23 23 51 40 32 26 23 23 26 30 92 99 99 100 92 100 100 100 100 100
81 70 76 81 89 65 31 20 52 75 59 57 54 57 47 60 53 25 19 14 13 16 21 23 97 23 48 71 73 53 99 100 100 100 100 95 93 96 100 100 100 97 74
85 84 76 99 100 90 86 41 88 85 70 32 20 25 27 22 22 68 52 53 84 100 100 48 58 85 97 100 100 100 100 100 100 100 100 100 100 100 100 94 76 58 52
80 72 92 100 100 99 94 99 98 69 71 66 49 48 68 78 100 100 91 100 100 90 99 99 100 100 100 100 100 100 100 100 100 100 100 100 100 86 71 64 58 57 56

GFSMW_500_rhum_207.txt.gz
RH
7 5 4 5 6 11 18 34 38 39 37 47 49 47 40 34 31 30 37 100 85 99 98 100 96 93 94 99 100 88 87 80 81 86 75 63 65 73 89 88 85 88 83
6 5 7 7 7 7 15 24 24 38 40 42 46 42 45 40 42 27 26 36 59 60 95 89 98 87 97 88 98 80 84 93 75 68 77 76 79 86 98 92 97 93 92
11 12 10 7 5 6 10 22 33 29 40 53 54 46 47 64 77 53 28 27 29 48 95 96 97 97 95 96 99 82 72 84 88 84 89 92 81 84 88 93 98 94 88
13 12 10 11 9 5 6 18 27 38 34 45 54 50 67 64 81 80 69 50 46 58 87 98 97 92 97 89 90 79 89 84 95 90 87 95 92 89 89 92 93 94 95
15 15 13 12 11 8 7 8 26 41 38 26 29 57 76 100 94 82 85 73 66 62 65 81 96 96 97 97 97 86 90 93 95 84 89 94 95 93 92 96 98 92 96
12 10 11 12 11 10 9 7 12 19 33 27 23 31 66 95 92 96 94 93 90 94 95 88 85 92 90 90 98 98 88 96 88 91 88 89 89 91 97 97 96 92 88
7 7 8 7 9 12 8 6 10 20 16 40 55 56 61 66 86 98 96 90 91 94 98 96 90 90 97 98 93 92 92 91 92 99 90 91 79 93 98 90 91 92 94
6 8 13 10 10 8 9 17 18 16 27 27 59 58 66 64 73 96 97 93 94 90 98 96 95 94 92 98 97 98 97 95 98 98 86 99 99 100 94 96 92 94 97
38 34 30 27 36 35 99 100 100 97 75 64 97 77 56 79 100 100 94 96 97 96 97 98 98 96 92 91 95 96 98 97 88 97 97 98 97 95 92 98 99 94 91
69 76 58 48 48 45 54 63 74 94 90 96 97 97 59 77 82 97 97 91 96 96 96 97 96 98 92 94 92 99 99 94 93 96 98 95 96 97 97 99 97 98 81
66 61 55 63 49 44 36 33 22 25 66 59 55 93 97 96 100 100 94 96 96 97 98 97 100 97 88 96 96 96 94 91 98 96 98 97 92 98 96 94 96 97 95
85 71 90 84 75 56 59 48 47 28 20 32 30 44 90 99 99 99 95 98 98 98 98 99 99 100 100 98 97 94 99 95 95 98 98 96 97 96 97 98 99 97 98
100 98 73 60 59 55 43 38 56 88 90 49 37 34 51 78 69 89 93 97 99 97 99 97 99 98 98 99 98 98 98 99 98 98 98 98 98 98 98 99 98 98 99
100 98 100 100 99 70 65 69 60 68 87 97 94 60 81 82 100 89 97 99 99 99 99 99 97 98 100 97 98 98 96 94 93 100 98 98 98 98 98 97 97 98 97
71 100 100 100 97 98 94 74 75 79 63 56 66 77 86 96 97 99 99 93 95 100 99 98 100 100 99 99 98 98 98 99 100 100 100 99 98 98 99 98 94 89 85
80 77 87 90 81 73 70 67 51 48 46 45 43 40 40 52 65 83 80 95 98 100 95 100 98 98 100 100 100 99 99 98 98 99 99 98 98 97 98 99 93 87 80
91 93 99 94 83 67 58 57 59 55 49 43 38 30 24 23 30 38 40 68 94 92 72 91 92 98 100 100 100 99 98 98 98 95 93 91 85 70 58 48 39 33 29
99 100 98 91 90 80 74 62 51 46 41 32 28 25 17 14 15 29 34 36 46 46 51 66 80 92 97 90 97 97 98 93 70 42 32 17 21 27 34 37 41 34 34
69 79 94 87 82 86 88 74 52 42 34 26 18 15 13 13 30 22 29 40 34 28 28 33 39 42 51 52 52 77 84 70 57 32 12 9 8 8 10 14 18 22 27
88 81 72 71 68 62 55 49 44 37 31 28 25 22 21 29 46 94 98 62 38 32 32 37 24 22 28 32 28 24 35 35 43 24 15 12 8 9 9 13 18 20 26
59 59 61 66 60 51 48 48 48 48 34 28 34 35 50 60 68 100 100 100 66 38 37 45 40 36 25 23 37 20 20 21 16 15 15 15 14 15 17 20 22 28 36
38 36 42 39 32 29 27 25 25 26 29 30 46 46 65 87 77 87 100 100 97 78 70 52 51 57 76 45 24 21 21 23 24 27 28 26 26 24 21 20 41 59 86
42 37 37 28 23 34 45 48 61 34 24 85 89 56 39 62 79 60 72 88 81 82 95 73 69 65 53 39 48 37 36 58 50 38 34 31 22 20 28 53 97 96 100
62 73 71 67 57 71 70 68 65 82 60 50 70 48 30 40 56 43 66 68 44 39 40 60 53 49 51 46 46 40 38 50 27 25 37 42 90 99 98 100 100 100 100
75 78 61 64 60 66 73 100 100 91 88 56 77 77 68 67 50 42 47 42 37 49 25 18 21 17 20 36 29 99 85 39 88 100 100 100 100 100 100 100 100 100 98
92 87 92 75 64 66 100 97 99 100 99 100 79 55 49 40 20 16 20 31 33 51 56 85 74 71 92 100 54 72 97 100 100 100 100 98 100 100 100 100 98 84 69